Time,TemperatureF,DewpointF,PressureIn,WindDirection,WindDirectionDegrees,WindSpeedMPH,WindSpeedGustMPH,Humidity,HourlyPrecipIn,Conditions,Clouds,dailyrainin,SoftwareType,DateUTC
2013-03-27 00:03:00,26.2,20.9,30.19,South,169,0.0,0.0,80,0.00,,SKC,0.00,VWS V14.01,2013-03-27 05:03:00,
2013-03-27 00:08:00,26.3,21.3,30.19,South,169,0.0,0.0,81,0.00,,SKC,0.00,VWS V14.01,2013-03-27 05:08:00,
2013-03-27 00:13:00,26.4,21.4,30.19,South,169,0.0,0.0,81,0.00,,SKC,0.00,VWS V14.01,2013-03-27 05:13:00,
2013-03-27 00:18:00,26.5,21.5,30.20,South,169,0.0,0.0,81,0.00,,SKC,0.00,VWS V14.01,2013-03-27 05:18:00,
2013-03-27 00:23:00,26.5,21.2,30.20,South,169,0.0,0.0,80,0.00,,SKC,0.00,VWS V14.01,2013-03-27 05:23:00,
2013-03-27 00:28:00,26.5,21.5,30.20,South,169,0.0,0.0,81,0.00,,SKC,0.00,VWS V14.01,2013-03-27 05:28:00,
2013-03-27 00:33:00,26.5,21.5,30.20,South,169,0.0,0.0,81,0.00,,SKC,0.00,VWS V14.01,2013-03-27 05:33:00,
2013-03-27 00:38:00,26.5,21.5,30.20,South,169,0.0,0.0,81,0.00,,SKC,0.00,VWS V14.01,2013-03-27 05:38:00,
2013-03-27 00:43:00,26.5,21.5,30.20,South,169,0.0,0.0,81,0.00,,SKC,0.00,VWS V14.01,2013-03-27 05:43:00,
2013-03-27 00:48:00,26.5,21.5,30.21,South,169,0.0,0.0,81,0.00,,SKC,0.00,VWS V14.01,2013-03-27 05:48:00,
2013-03-27 00:53:00,26.5,21.5,30.20,South,169,0.0,0.0,81,0.00,,SKC,0.00,VWS V14.01,2013-03-27 05:53:00,
2013-03-27 00:58:00,26.5,21.5,30.20,South,169,0.0,0.0,81,0.00,,SKC,0.00,VWS V14.01,2013-03-27 05:58:00,
2013-03-27 01:03:00,26.4,21.4,30.20,South,169,0.0,0.0,81,0.00,,SKC,0.00,VWS V14.01,2013-03-27 06:03:00,
2013-03-27 01:08:00,26.4,21.4,30.20,South,169,0.0,2.0,81,0.00,,SKC,0.00,VWS V14.01,2013-03-27 06:08:00,
2013-03-27 01:13:00,26.3,21.6,30.20,South,169,0.0,2.0,82,0.00,,SKC,0.00,VWS V14.01,2013-03-27 06:13:00,
2013-03-27 01:18:00,26.3,21.6,30.20,South,169,0.0,0.0,82,0.00,,SKC,0.00,VWS V14.01,2013-03-27 06:18:00,
2013-03-27 01:23:00,26.3,21.6,30.20,South,169,0.0,0.0,82,0.00,,SKC,0.00,VWS V14.01,2013-03-27 06:23:00,
2013-03-27 01:28:00,26.3,21.6,30.19,South,169,0.0,0.0,82,0.00,,SKC,0.00,VWS V14.01,2013-03-27 06:28:00,
2013-03-27 01:33:00,26.3,21.6,30.20,South,169,0.0,0.0,82,0.00,,SKC,0.00,VWS V14.01,2013-03-27 06:33:00,
2013-03-27 01:38:00,26.3,21.6,30.20,South,169,0.0,2.0,82,0.00,,SKC,0.00,VWS V14.01,2013-03-27 06:38:00,
2013-03-27 01:43:00,26.4,21.7,30.20,South,169,0.0,2.0,82,0.00,,SKC,0.00,VWS V14.01,2013-03-27 06:43:00,
2013-03-27 01:48:00,26.4,21.4,30.20,South,169,0.0,0.0,81,0.00,,SKC,0.00,VWS V14.01,2013-03-27 06:48:00,
2013-03-27 01:53:00,26.5,21.5,30.20,South,169,0.0,1.0,81,0.00,,SKC,0.00,VWS V14.01,2013-03-27 06:53:00,
2013-03-27 01:58:00,26.5,21.5,30.20,South,169,0.0,0.0,81,0.00,,SKC,0.00,VWS V14.01,2013-03-27 06:58:00,
2013-03-27 02:03:00,26.5,21.5,30.20,South,169,0.0,1.0,81,0.00,,SKC,0.00,VWS V14.01,2013-03-27 07:03:00,
2013-03-27 02:08:00,26.4,21.4,30.20,South,169,0.0,0.0,81,0.00,,SKC,0.00,VWS V14.01,2013-03-27 07:08:00,
2013-03-27 02:13:00,26.4,21.4,30.19,South,169,0.0,0.0,81,0.00,,SKC,0.00,VWS V14.01,2013-03-27 07:13:00,
2013-03-27 02:18:00,26.3,21.3,30.19,South,169,0.0,0.0,81,0.00,,SKC,0.00,VWS V14.01,2013-03-27 07:18:00,
2013-03-27 02:23:00,26.2,21.2,30.19,South,169,0.0,0.0,81,0.00,,SKC,0.00,VWS V14.01,2013-03-27 07:23:00,
2013-03-27 02:28:00,26.1,21.4,30.18,South,169,1.0,2.0,82,0.00,,SKC,0.00,VWS V14.01,2013-03-27 07:28:00,
2013-03-27 02:33:00,26.1,21.4,30.18,South,169,2.0,2.0,82,0.00,,SKC,0.00,VWS V14.01,2013-03-27 07:33:00,
2013-03-27 02:38:00,26.0,21.3,30.18,SSE,164,3.0,4.0,82,0.00,,SKC,0.00,VWS V14.01,2013-03-27 07:38:00,
2013-03-27 02:43:00,26.2,21.5,30.18,SSE,157,0.0,4.0,82,0.00,,SKC,0.00,VWS V14.01,2013-03-27 07:43:00,
2013-03-27 02:48:00,26.3,21.6,30.18,SSE,157,0.0,0.0,82,0.00,,SKC,0.00,VWS V14.01,2013-03-27 07:48:00,
2013-03-27 02:53:00,26.3,21.6,30.18,SSE,157,2.0,3.0,82,0.00,,SKC,0.00,VWS V14.01,2013-03-27 07:53:00,
2013-03-27 02:58:00,26.4,21.7,30.18,SSE,154,1.0,3.0,82,0.00,,SKC,0.00,VWS V14.01,2013-03-27 07:58:00,
2013-03-27 03:03:00,26.5,21.8,30.18,SSE,154,0.0,3.0,82,0.00,,SKC,0.00,VWS V14.01,2013-03-27 08:03:00,
2013-03-27 03:08:00,26.6,21.9,30.18,SSE,153,0.0,2.0,82,0.00,,SKC,0.00,VWS V14.01,2013-03-27 08:08:00,
2013-03-27 03:13:00,26.7,22.0,30.18,SSE,150,3.0,3.0,82,0.00,,SKC,0.00,VWS V14.01,2013-03-27 08:13:00,
2013-03-27 03:18:00,26.8,22.0,30.17,SSE,149,0.0,3.0,82,0.00,,SKC,0.00,VWS V14.01,2013-03-27 08:18:00,
2013-03-27 03:23:00,26.9,22.1,30.17,SE,143,0.0,4.0,82,0.00,,SKC,0.00,VWS V14.01,2013-03-27 08:23:00,
2013-03-27 03:28:00,27.0,22.0,30.17,SE,142,3.0,3.0,81,0.00,,SKC,0.00,VWS V14.01,2013-03-27 08:28:00,
2013-03-27 03:33:00,27.1,22.1,30.18,SE,136,2.0,4.0,81,0.00,,SKC,0.00,VWS V14.01,2013-03-27 08:33:00,
2013-03-27 03:38:00,27.2,21.9,30.17,SE,136,2.0,3.0,80,0.00,,SKC,0.00,VWS V14.01,2013-03-27 08:38:00,
2013-03-27 03:43:00,27.4,22.0,30.17,SE,134,0.0,4.0,80,0.00,,SKC,0.00,VWS V14.01,2013-03-27 08:43:00,
2013-03-27 03:48:00,27.5,21.9,30.17,SE,132,0.0,3.0,79,0.00,,SKC,0.00,VWS V14.01,2013-03-27 08:48:00,
2013-03-27 03:53:00,27.6,22.0,30.18,SE,132,0.0,3.0,79,0.00,,SKC,0.00,VWS V14.01,2013-03-27 08:53:00,
2013-03-27 03:58:00,27.7,22.0,30.18,SE,129,0.0,4.0,79,0.00,,SKC,0.00,VWS V14.01,2013-03-27 08:58:00,
2013-03-27 04:04:00,27.7,22.0,30.17,SE,129,0.0,4.0,79,0.00,,SKC,0.00,VWS V14.01,2013-03-27 09:04:00,
2013-03-27 04:09:00,27.8,22.1,30.17,SE,128,3.0,4.0,79,0.00,,SKC,0.00,VWS V14.01,2013-03-27 09:09:00,
2013-03-27 04:14:00,27.8,22.1,30.18,SE,128,0.0,4.0,79,0.00,,SKC,0.00,VWS V14.01,2013-03-27 09:14:00,
2013-03-27 04:19:00,27.8,22.1,30.17,SE,128,0.0,3.0,79,0.00,,SKC,0.00,VWS V14.01,2013-03-27 09:19:00,
2013-03-27 04:24:00,27.9,22.2,30.17,SE,128,2.0,3.0,79,0.00,,SKC,0.00,VWS V14.01,2013-03-27 09:24:00,
2013-03-27 04:29:00,27.9,22.2,30.17,SE,126,1.0,5.0,79,0.00,,SKC,0.00,VWS V14.01,2013-03-27 09:29:00,
2013-03-27 04:34:00,28.0,22.3,30.17,SE,124,0.0,5.0,79,0.00,,SKC,0.00,VWS V14.01,2013-03-27 09:34:00,
2013-03-27 04:39:00,28.0,22.3,30.17,SE,124,1.0,2.0,79,0.00,,SKC,0.00,VWS V14.01,2013-03-27 09:39:00,
2013-03-27 04:44:00,28.0,22.3,30.17,ESE,123,0.0,3.0,79,0.00,,SKC,0.00,VWS V14.01,2013-03-27 09:44:00,
2013-03-27 04:49:00,28.0,22.3,30.17,ESE,123,0.0,0.0,79,0.00,,SKC,0.00,VWS V14.01,2013-03-27 09:49:00,
2013-03-27 04:54:00,28.0,22.3,30.17,ESE,123,2.0,4.0,79,0.00,,SKC,0.00,VWS V14.01,2013-03-27 09:54:00,
2013-03-27 04:59:00,28.0,22.3,30.17,ESE,113,2.0,5.0,79,0.00,,SKC,0.00,VWS V14.01,2013-03-27 09:59:00,
2013-03-27 05:04:00,27.9,22.2,30.16,ESE,103,2.0,3.0,79,0.00,,SKC,0.00,VWS V14.01,2013-03-27 10:04:00,
2013-03-27 05:09:00,28.0,22.3,30.16,East,101,4.0,5.0,79,0.00,,SKC,0.00,VWS V14.01,2013-03-27 10:09:00,
2013-03-27 05:14:00,28.1,22.4,30.16,East,97,4.0,4.0,79,0.00,,SKC,0.00,VWS V14.01,2013-03-27 10:14:00,
2013-03-27 05:19:00,28.2,22.5,30.17,East,96,1.0,5.0,79,0.00,,SKC,0.00,VWS V14.01,2013-03-27 10:19:00,
2013-03-27 05:24:00,28.3,22.6,30.16,East,96,4.0,6.0,79,0.00,,SKC,0.00,VWS V14.01,2013-03-27 10:24:00,
2013-03-27 05:29:00,28.3,22.6,30.17,East,96,4.0,6.0,79,0.00,,SKC,0.00,VWS V14.01,2013-03-27 10:29:00,
2013-03-27 05:34:00,28.4,22.7,30.17,East,97,3.0,4.0,79,0.00,,SKC,0.00,VWS V14.01,2013-03-27 10:34:00,
2013-03-27 05:39:00,28.6,22.6,30.17,East,98,2.0,6.0,78,0.00,,SKC,0.00,VWS V14.01,2013-03-27 10:39:00,
2013-03-27 05:44:00,28.7,22.7,30.17,East,98,3.0,4.0,78,0.00,,SKC,0.00,VWS V14.01,2013-03-27 10:44:00,
2013-03-27 05:49:00,28.8,22.8,30.17,East,100,3.0,5.0,78,0.00,,SKC,0.00,VWS V14.01,2013-03-27 10:49:00,
2013-03-27 05:54:00,28.8,22.8,30.17,East,101,4.0,4.0,78,0.00,,SKC,0.00,VWS V14.01,2013-03-27 10:54:00,
2013-03-27 06:02:00,28.8,22.5,30.17,ESE,106,0.0,0.0,77,0.00,,SKC,0.00,VWS V14.01,2013-03-27 11:02:00,
2013-03-27 06:07:00,28.8,22.8,30.17,ESE,106,5.0,9.0,78,0.00,,SKC,0.00,VWS V14.01,2013-03-27 11:07:00,
2013-03-27 06:12:00,28.8,22.8,30.17,ESE,106,3.0,9.0,78,0.00,,SKC,0.00,VWS V14.01,2013-03-27 11:12:00,
2013-03-27 06:18:00,28.8,22.8,30.16,ESE,106,3.0,11.0,78,0.00,,SKC,0.00,VWS V14.01,2013-03-27 11:18:00,
2013-03-27 06:23:00,28.7,22.7,30.17,ESE,107,5.0,11.0,78,0.00,,SKC,0.00,VWS V14.01,2013-03-27 11:23:00,
2013-03-27 06:28:00,28.7,22.7,30.16,East,101,6.0,6.0,78,0.00,,SKC,0.00,VWS V14.01,2013-03-27 11:28:00,
2013-03-27 06:33:00,28.8,22.8,30.18,East,101,1.0,6.0,78,0.00,,SKC,0.00,VWS V14.01,2013-03-27 11:33:00,
2013-03-27 06:38:00,28.8,22.8,30.17,ESE,109,2.0,6.0,78,0.00,,SKC,0.00,VWS V14.01,2013-03-27 11:38:00,
2013-03-27 06:43:00,28.8,22.8,30.17,ESE,112,1.0,6.0,78,0.00,,SKC,0.00,VWS V14.01,2013-03-27 11:43:00,
2013-03-27 06:48:00,28.8,22.8,30.17,ESE,117,3.0,6.0,78,0.00,,SKC,0.00,VWS V14.01,2013-03-27 11:48:00,
2013-03-27 06:53:00,28.9,22.9,30.17,ESE,106,5.0,8.0,78,0.00,,SKC,0.00,VWS V14.01,2013-03-27 11:53:00,
2013-03-27 06:58:00,28.9,22.9,30.17,ESE,105,3.0,6.0,78,0.00,,SKC,0.00,VWS V14.01,2013-03-27 11:58:00,
2013-03-27 07:03:00,28.9,22.9,30.17,ESE,109,4.0,6.0,78,0.00,,SKC,0.00,VWS V14.01,2013-03-27 12:03:00,
2013-03-27 07:08:00,29.0,23.0,30.17,ESE,112,0.0,6.0,78,0.00,,SKC,0.00,VWS V14.01,2013-03-27 12:08:00,
2013-03-27 07:13:00,29.0,23.0,30.17,ESE,111,2.0,6.0,78,0.00,,SKC,0.00,VWS V14.01,2013-03-27 12:13:00,
2013-03-27 07:18:00,29.0,23.3,30.17,ESE,109,2.0,5.0,79,0.00,,SKC,0.00,VWS V14.01,2013-03-27 12:18:00,
2013-03-27 07:23:00,29.0,23.3,30.16,East,100,3.0,6.0,79,0.00,,SKC,0.00,VWS V14.01,2013-03-27 12:23:00,
2013-03-27 07:28:00,29.1,23.4,30.17,ESE,105,5.0,7.0,79,0.00,,SKC,0.00,VWS V14.01,2013-03-27 12:28:00,
2013-03-27 07:33:00,29.1,23.4,30.17,ESE,107,3.0,7.0,79,0.00,,SKC,0.00,VWS V14.01,2013-03-27 12:33:00,
2013-03-27 07:38:00,29.2,23.5,30.17,ESE,106,10.0,10.0,79,0.00,,SKC,0.00,VWS V14.01,2013-03-27 12:38:00,
2013-03-27 07:43:00,29.2,23.5,30.17,ESE,103,4.0,10.0,79,0.00,,SKC,0.00,VWS V14.01,2013-03-27 12:43:00,
2013-03-27 07:48:00,29.3,23.6,30.17,ESE,102,3.0,5.0,79,0.00,,SKC,0.00,VWS V14.01,2013-03-27 12:48:00,
2013-03-27 07:53:00,29.3,23.6,30.17,East,98,5.0,7.0,79,0.00,,SKC,0.00,VWS V14.01,2013-03-27 12:53:00,
2013-03-27 07:58:00,29.4,23.7,30.16,East,94,4.0,7.0,79,0.00,,SKC,0.00,VWS V14.01,2013-03-27 12:58:00,
2013-03-27 08:03:00,29.4,23.7,30.16,East,91,5.0,8.0,79,0.00,,SKC,0.00,VWS V14.01,2013-03-27 13:03:00,
2013-03-27 08:08:00,29.4,23.7,30.17,East,94,4.0,7.0,79,0.00,,SKC,0.00,VWS V14.01,2013-03-27 13:08:00,
2013-03-27 08:13:00,29.5,23.8,30.17,East,97,4.0,7.0,79,0.00,,SKC,0.00,VWS V14.01,2013-03-27 13:13:00,
2013-03-27 08:18:00,29.6,23.9,30.17,ESE,104,6.0,7.0,79,0.00,,SKC,0.00,VWS V14.01,2013-03-27 13:18:00,
2013-03-27 08:23:00,29.7,23.7,30.17,ESE,111,2.0,7.0,78,0.00,,SKC,0.00,VWS V14.01,2013-03-27 13:23:00,
2013-03-27 08:28:00,29.9,24.2,30.17,ESE,104,4.0,6.0,79,0.00,,SKC,0.00,VWS V14.01,2013-03-27 13:28:00,
2013-03-27 08:33:00,30.1,24.1,30.17,ESE,104,4.0,7.0,78,0.00,,SKC,0.00,VWS V14.01,2013-03-27 13:33:00,
2013-03-27 08:38:00,30.1,24.1,30.16,ESE,102,5.0,10.0,78,0.00,,SKC,0.00,VWS V14.01,2013-03-27 13:38:00,
2013-03-27 08:43:00,30.3,24.3,30.16,East,101,2.0,10.0,78,0.00,,SKC,0.00,VWS V14.01,2013-03-27 13:43:00,
2013-03-27 08:48:00,30.5,24.8,30.17,ESE,103,3.0,6.0,79,0.00,,SKC,0.00,VWS V14.01,2013-03-27 13:48:00,
2013-03-27 08:53:00,30.6,24.6,30.17,ESE,105,4.0,7.0,78,0.00,,SKC,0.00,VWS V14.01,2013-03-27 13:53:00,
2013-03-27 08:58:00,30.9,24.9,30.16,ESE,110,5.0,10.0,78,0.00,,SKC,0.00,VWS V14.01,2013-03-27 13:58:00,
2013-03-27 09:03:00,31.2,24.8,30.16,East,99,6.0,10.0,77,0.00,,SKC,0.00,VWS V14.01,2013-03-27 14:03:00,
2013-03-27 09:08:00,31.4,25.0,30.16,ESE,103,4.0,9.0,77,0.00,,SKC,0.00,VWS V14.01,2013-03-27 14:08:00,
2013-03-27 09:13:00,31.6,25.2,30.16,East,101,4.0,9.0,77,0.00,,SKC,0.00,VWS V14.01,2013-03-27 14:13:00,
2013-03-27 09:18:00,31.9,25.5,30.16,East,101,4.0,8.0,77,0.00,,SKC,0.00,VWS V14.01,2013-03-27 14:18:00,
2013-03-27 09:23:00,32.1,25.4,30.16,ESE,108,5.0,9.0,76,0.00,,SKC,0.00,VWS V14.01,2013-03-27 14:23:00,
2013-03-27 09:28:00,32.2,25.2,30.16,East,98,8.0,14.0,75,0.00,,SKC,0.00,VWS V14.01,2013-03-27 14:28:00,
2013-03-27 09:33:00,32.3,25.6,30.16,East,101,5.0,14.0,76,0.00,,SKC,0.00,VWS V14.01,2013-03-27 14:33:00,
2013-03-27 09:38:00,32.5,25.8,30.16,East,98,4.0,6.0,76,0.00,,SKC,0.00,VWS V14.01,2013-03-27 14:38:00,
2013-03-27 09:43:00,32.9,26.2,30.16,ESE,105,3.0,7.0,76,0.00,,SKC,0.00,VWS V14.01,2013-03-27 14:43:00,
2013-03-27 09:48:00,33.4,26.0,30.16,ESE,107,6.0,11.0,74,0.00,,SKC,0.00,VWS V14.01,2013-03-27 14:48:00,
2013-03-27 09:53:00,33.9,26.8,30.15,East,98,4.0,11.0,75,0.00,,SKC,0.00,VWS V14.01,2013-03-27 14:53:00,
2013-03-27 09:58:00,34.4,27.3,30.16,ESE,105,5.0,7.0,75,0.00,,SKC,0.00,VWS V14.01,2013-03-27 14:58:00,
2013-03-27 10:03:00,35.1,28.0,30.15,ESE,103,5.0,7.0,75,0.00,,SKC,0.00,VWS V14.01,2013-03-27 15:03:00,
2013-03-27 10:08:00,35.8,27.7,30.15,ESE,119,5.0,10.0,72,0.00,,SKC,0.00,VWS V14.01,2013-03-27 15:08:00,
2013-03-27 10:13:00,36.2,27.4,30.15,ESE,108,4.0,11.0,70,0.00,,SKC,0.00,VWS V14.01,2013-03-27 15:13:00,
2013-03-27 10:18:00,36.8,28.0,30.15,East,101,9.0,11.0,70,0.00,,SKC,0.00,VWS V14.01,2013-03-27 15:18:00,
2013-03-27 10:23:00,37.2,28.0,30.15,SE,124,6.0,12.0,69,0.00,,SKC,0.00,VWS V14.01,2013-03-27 15:23:00,
2013-03-27 10:28:00,37.8,28.6,30.15,ESE,111,6.0,10.0,69,0.00,,SKC,0.00,VWS V14.01,2013-03-27 15:28:00,
2013-03-27 10:34:00,38.3,28.3,30.15,East,97,13.0,13.0,67,0.00,,SKC,0.00,VWS V14.01,2013-03-27 15:34:00,
2013-03-27 10:39:00,38.3,28.3,30.15,ESE,105,2.0,11.0,67,0.00,,SKC,0.00,VWS V14.01,2013-03-27 15:39:00,
2013-03-27 10:44:00,38.5,28.1,30.15,ESE,112,4.0,11.0,66,0.00,,SKC,0.00,VWS V14.01,2013-03-27 15:44:00,
2013-03-27 10:49:00,38.9,28.9,30.15,ESE,112,7.0,10.0,67,0.00,,SKC,0.00,VWS V14.01,2013-03-27 15:49:00,
2013-03-27 10:54:00,39.3,28.5,30.15,ESE,113,7.0,10.0,65,0.00,,SKC,0.00,VWS V14.01,2013-03-27 15:54:00,
2013-03-27 10:59:00,39.7,28.5,30.15,East,96,4.0,10.0,64,0.00,,SKC,0.00,VWS V14.01,2013-03-27 15:59:00,
2013-03-27 11:04:00,40.0,28.8,30.15,ESE,111,3.0,10.0,64,0.00,,SKC,0.00,VWS V14.01,2013-03-27 16:04:00,
2013-03-27 11:09:00,40.5,29.3,30.16,SE,128,6.0,11.0,64,0.00,,SKC,0.00,VWS V14.01,2013-03-27 16:09:00,
2013-03-27 11:14:00,41.2,29.6,30.15,East,94,5.0,11.0,63,0.00,,SKC,0.00,VWS V14.01,2013-03-27 16:14:00,
2013-03-27 11:19:00,41.7,28.9,30.16,SE,127,10.0,10.0,60,0.00,,SKC,0.00,VWS V14.01,2013-03-27 16:19:00,
2013-03-27 11:24:00,42.1,29.2,30.15,ESE,103,9.0,12.0,60,0.00,,SKC,0.00,VWS V14.01,2013-03-27 16:24:00,
2013-03-27 11:29:00,42.5,29.6,30.15,ESE,111,9.0,12.0,60,0.00,,SKC,0.00,VWS V14.01,2013-03-27 16:29:00,
2013-03-27 11:34:00,42.7,29.4,30.15,ESE,121,9.0,9.0,59,0.00,,SKC,0.00,VWS V14.01,2013-03-27 16:34:00,
2013-03-27 11:39:00,43.3,30.4,30.15,East,97,7.0,14.0,60,0.00,,SKC,0.00,VWS V14.01,2013-03-27 16:39:00,
2013-03-27 11:44:00,43.9,30.1,30.15,ESE,107,10.0,14.0,58,0.00,,SKC,0.00,VWS V14.01,2013-03-27 16:44:00,
2013-03-27 11:49:00,44.2,30.0,30.15,ESE,110,6.0,11.0,57,0.00,,SKC,0.00,VWS V14.01,2013-03-27 16:49:00,
2013-03-27 11:54:00,44.5,30.7,30.15,ESE,103,5.0,13.0,58,0.00,,SKC,0.00,VWS V14.01,2013-03-27 16:54:00,
2013-03-27 11:59:00,45.1,31.6,30.14,ESE,118,6.0,12.0,59,0.00,,SKC,0.00,VWS V14.01,2013-03-27 16:59:00,
2013-03-27 12:04:00,45.4,31.1,30.14,SE,124,5.0,11.0,57,0.00,,SKC,0.00,VWS V14.01,2013-03-27 17:04:00,
2013-03-27 12:09:00,45.6,30.8,30.14,East,94,7.0,12.0,56,0.00,,SKC,0.00,VWS V14.01,2013-03-27 17:09:00,
2013-03-27 12:14:00,45.5,30.3,30.13,East,98,12.0,14.0,55,0.00,,SKC,0.00,VWS V14.01,2013-03-27 17:14:00,
2013-03-27 12:19:00,45.4,30.6,30.14,East,101,5.0,15.0,56,0.00,,SKC,0.00,VWS V14.01,2013-03-27 17:19:00,
2013-03-27 12:24:00,45.7,30.5,30.13,SE,128,9.0,15.0,55,0.00,,SKC,0.00,VWS V14.01,2013-03-27 17:24:00,
2013-03-27 12:29:00,45.8,31.0,30.13,East,99,5.0,11.0,56,0.00,,SKC,0.00,VWS V14.01,2013-03-27 17:29:00,
2013-03-27 12:34:00,46.0,31.2,30.13,East,90,8.0,11.0,56,0.00,,SKC,0.00,VWS V14.01,2013-03-27 17:34:00,
2013-03-27 12:39:00,46.6,32.2,30.13,ESE,115,5.0,10.0,57,0.00,,SKC,0.00,VWS V14.01,2013-03-27 17:39:00,
2013-03-27 12:44:00,47.0,32.1,30.12,East,96,6.0,6.0,56,0.00,,SKC,0.00,VWS V14.01,2013-03-27 17:44:00,
2013-03-27 12:49:00,47.9,31.1,30.12,ESE,114,7.0,14.0,52,0.00,,SKC,0.00,VWS V14.01,2013-03-27 17:49:00,
2013-03-27 12:54:00,48.4,31.6,30.12,ESE,105,8.0,8.0,52,0.00,,SKC,0.00,VWS V14.01,2013-03-27 17:54:00,
2013-03-27 12:59:00,48.7,30.9,30.12,East,100,11.0,13.0,50,0.00,,SKC,0.00,VWS V14.01,2013-03-27 17:59:00,
2013-03-27 13:04:00,48.9,30.6,30.12,ESE,110,7.0,10.0,49,0.00,,SKC,0.00,VWS V14.01,2013-03-27 18:04:00,
2013-03-27 13:09:00,49.0,30.7,30.11,East,98,8.0,15.0,49,0.00,,SKC,0.00,VWS V14.01,2013-03-27 18:09:00,
2013-03-27 13:14:00,49.6,31.7,30.11,ESE,107,7.0,7.0,50,0.00,,SKC,0.00,VWS V14.01,2013-03-27 18:14:00,
2013-03-27 13:19:00,49.6,31.7,30.11,SE,134,4.0,13.0,50,0.00,,SKC,0.00,VWS V14.01,2013-03-27 18:19:00,
2013-03-27 13:24:00,49.9,31.5,30.10,SE,132,6.0,10.0,49,0.00,,SKC,0.00,VWS V14.01,2013-03-27 18:24:00,
2013-03-27 13:29:00,50.3,31.9,30.10,East,91,7.0,12.0,49,0.00,,SKC,0.00,VWS V14.01,2013-03-27 18:29:00,
2013-03-27 13:34:00,50.0,32.1,30.10,ESE,106,6.0,10.0,50,0.00,,SKC,0.00,VWS V14.01,2013-03-27 18:34:00,
2013-03-27 13:39:00,50.2,32.3,30.10,SE,128,11.0,14.0,50,0.00,,SKC,0.00,VWS V14.01,2013-03-27 18:39:00,
2013-03-27 13:44:00,50.3,32.4,30.10,ESE,102,4.0,7.0,50,0.00,,SKC,0.00,VWS V14.01,2013-03-27 18:44:00,
2013-03-27 13:49:00,50.7,32.2,30.10,ESE,103,9.0,12.0,49,0.00,,SKC,0.00,VWS V14.01,2013-03-27 18:49:00,
2013-03-27 13:54:00,51.1,32.6,30.10,SE,139,7.0,10.0,49,0.00,,SKC,0.00,VWS V14.01,2013-03-27 18:54:00,
2013-03-27 13:59:00,51.4,33.4,30.10,ESE,121,5.0,11.0,50,0.00,,SKC,0.00,VWS V14.01,2013-03-27 18:59:00,
2013-03-27 14:04:00,51.6,32.0,30.10,ESE,123,4.0,9.0,47,0.00,,SKC,0.00,VWS V14.01,2013-03-27 19:04:00,
2013-03-27 14:09:00,52.0,32.4,30.09,ESE,103,7.0,15.0,47,0.00,,SKC,0.00,VWS V14.01,2013-03-27 19:09:00,
2013-03-27 14:14:00,52.1,32.0,30.09,SE,130,9.0,13.0,46,0.00,,SKC,0.00,VWS V14.01,2013-03-27 19:14:00,
2013-03-27 14:19:00,52.1,30.9,30.09,SE,146,4.0,13.0,44,0.00,,SKC,0.00,VWS V14.01,2013-03-27 19:19:00,
2013-03-27 14:24:00,52.4,30.0,30.09,SSE,158,3.0,7.0,42,0.00,,SKC,0.00,VWS V14.01,2013-03-27 19:24:00,
2013-03-27 14:29:00,52.8,29.2,30.09,SE,124,7.0,14.0,40,0.00,,SKC,0.00,VWS V14.01,2013-03-27 19:29:00,
2013-03-27 14:34:00,52.8,29.8,30.09,ESE,123,4.0,5.0,41,0.00,,SKC,0.00,VWS V14.01,2013-03-27 19:34:00,
2013-03-27 14:39:00,52.6,29.0,30.09,South,169,13.0,16.0,40,0.00,,SKC,0.00,VWS V14.01,2013-03-27 19:39:00,
2013-03-27 14:44:00,52.1,29.7,30.09,SE,138,5.0,10.0,42,0.00,,SKC,0.00,VWS V14.01,2013-03-27 19:44:00,
2013-03-27 14:49:00,52.3,29.9,30.08,SSE,166,5.0,13.0,42,0.00,,SKC,0.00,VWS V14.01,2013-03-27 19:49:00,
2013-03-27 14:54:00,52.3,28.7,30.08,SSE,162,5.0,15.0,40,0.00,,SKC,0.00,VWS V14.01,2013-03-27 19:54:00,
2013-03-27 14:59:00,52.0,28.5,30.08,SE,142,9.0,15.0,40,0.00,,SKC,0.00,VWS V14.01,2013-03-27 19:59:00,
2013-03-27 15:04:00,51.8,30.0,30.08,SSE,159,9.0,14.0,43,0.00,,SKC,0.00,VWS V14.01,2013-03-27 20:04:00,
2013-03-27 15:09:00,52.1,30.3,30.08,SE,141,5.0,14.0,43,0.00,,SKC,0.00,VWS V14.01,2013-03-27 20:09:00,
2013-03-27 15:14:00,52.5,30.1,30.08,SSE,155,3.0,7.0,42,0.00,,SKC,0.00,VWS V14.01,2013-03-27 20:14:00,
2013-03-27 15:19:00,52.8,30.9,30.08,SE,142,14.0,16.0,43,0.00,,SKC,0.00,VWS V14.01,2013-03-27 20:19:00,
2013-03-27 15:24:00,52.8,30.4,30.08,SSE,151,7.0,17.0,42,0.00,,SKC,0.00,VWS V14.01,2013-03-27 20:24:00,
2013-03-27 15:29:00,52.5,30.1,30.08,SSE,165,7.0,17.0,42,0.00,,SKC,0.00,VWS V14.01,2013-03-27 20:29:00,
2013-03-27 15:34:00,52.6,29.6,30.08,SE,137,2.0,5.0,41,0.00,,SKC,0.00,VWS V14.01,2013-03-27 20:34:00,
2013-03-27 15:39:00,52.8,30.4,30.07,SE,134,13.0,14.0,42,0.00,,SKC,0.00,VWS V14.01,2013-03-27 20:39:00,
2013-03-27 15:44:00,52.7,30.3,30.07,ESE,121,12.0,18.0,42,0.00,,SKC,0.00,VWS V14.01,2013-03-27 20:44:00,
2013-03-27 15:49:00,52.8,31.5,30.07,SSE,148,6.0,20.0,44,0.00,,SKC,0.00,VWS V14.01,2013-03-27 20:49:00,
2013-03-27 15:54:00,52.8,30.9,30.07,SSE,159,3.0,9.0,43,0.00,,SKC,0.00,VWS V14.01,2013-03-27 20:54:00,
2013-03-27 16:00:00,52.8,30.4,30.07,SSE,163,3.0,17.0,42,0.00,,SKC,0.00,VWS V14.01,2013-03-27 21:00:00,
2013-03-27 16:05:00,52.7,30.9,30.07,SSE,158,5.0,14.0,43,0.00,,SKC,0.00,VWS V14.01,2013-03-27 21:05:00,
2013-03-27 16:10:00,52.7,30.9,30.07,SSE,156,6.0,14.0,43,0.00,,SKC,0.00,VWS V14.01,2013-03-27 21:10:00,
2013-03-27 16:15:00,52.6,30.8,30.07,ESE,123,9.0,12.0,43,0.00,,SKC,0.00,VWS V14.01,2013-03-27 21:15:00,
2013-03-27 16:20:00,52.6,30.8,30.07,SE,140,1.0,12.0,43,0.00,,SKC,0.00,VWS V14.01,2013-03-27 21:20:00,
2013-03-27 16:25:00,52.4,31.1,30.07,SSE,164,5.0,10.0,44,0.00,,SKC,0.00,VWS V14.01,2013-03-27 21:25:00,
2013-03-27 16:30:00,52.6,31.3,30.07,SSE,148,0.0,11.0,44,0.00,,SKC,0.00,VWS V14.01,2013-03-27 21:30:00,
2013-03-27 16:35:00,52.6,31.3,30.07,SE,138,11.0,12.0,44,0.00,,SKC,0.00,VWS V14.01,2013-03-27 21:35:00,
2013-03-27 16:40:00,52.4,30.6,30.07,South,184,12.0,14.0,43,0.00,,SKC,0.00,VWS V14.01,2013-03-27 21:40:00,
2013-03-27 16:45:00,52.1,31.4,30.07,ESE,105,5.0,11.0,45,0.00,,SKC,0.00,VWS V14.01,2013-03-27 21:45:00,
2013-03-27 16:50:00,52.0,31.3,30.08,SE,136,7.0,16.0,45,0.00,,SKC,0.00,VWS V14.01,2013-03-27 21:50:00,
2013-03-27 16:55:00,51.9,31.2,30.08,SSE,161,8.0,12.0,45,0.00,,SKC,0.00,VWS V14.01,2013-03-27 21:55:00,
2013-03-27 17:00:00,51.7,31.6,30.08,SE,140,4.0,12.0,46,0.00,,SKC,0.00,VWS V14.01,2013-03-27 22:00:00,
2013-03-27 17:05:00,51.7,31.6,30.08,SE,130,6.0,15.0,46,0.00,,SKC,0.00,VWS V14.01,2013-03-27 22:05:00,
2013-03-27 17:10:00,51.7,31.1,30.07,SSE,162,2.0,15.0,45,0.00,,SKC,0.00,VWS V14.01,2013-03-27 22:10:00,
2013-03-27 17:15:00,51.7,32.1,30.08,ESE,115,4.0,5.0,47,0.00,,SKC,0.00,VWS V14.01,2013-03-27 22:15:00,
2013-03-27 17:20:00,51.8,31.7,30.07,SE,140,6.0,12.0,46,0.00,,SKC,0.00,VWS V14.01,2013-03-27 22:20:00,
2013-03-27 17:25:00,51.5,32.0,30.07,ESE,104,3.0,7.0,47,0.00,,SKC,0.00,VWS V14.01,2013-03-27 22:25:00,
2013-03-27 17:30:00,51.4,32.4,30.07,SE,126,4.0,10.0,48,0.00,,SKC,0.00,VWS V14.01,2013-03-27 22:30:00,
2013-03-27 17:35:00,51.4,32.4,30.07,SE,130,5.0,9.0,48,0.00,,SKC,0.00,VWS V14.01,2013-03-27 22:35:00,
2013-03-27 17:40:00,51.4,31.9,30.07,ESE,103,10.0,10.0,47,0.00,,SKC,0.00,VWS V14.01,2013-03-27 22:40:00,
2013-03-27 17:45:00,50.7,31.7,30.07,ESE,109,9.0,9.0,48,0.00,,SKC,0.00,VWS V14.01,2013-03-27 22:45:00,
2013-03-27 17:50:00,50.4,31.5,30.07,East,98,8.0,13.0,48,0.00,,SKC,0.00,VWS V14.01,2013-03-27 22:50:00,
2013-03-27 17:55:00,50.1,31.7,30.08,SSE,150,1.0,9.0,49,0.00,,SKC,0.00,VWS V14.01,2013-03-27 22:55:00,
2013-03-27 18:02:00,50.3,31.9,30.07,SE,142,5.0,11.0,49,0.00,,SKC,0.00,VWS V14.01,2013-03-27 23:02:00,
2013-03-27 18:07:00,50.4,32.0,30.07,SE,128,5.0,12.0,49,0.00,,SKC,0.00,VWS V14.01,2013-03-27 23:07:00,
2013-03-27 18:12:00,50.5,32.6,30.07,SE,124,3.0,12.0,50,0.00,,SKC,0.00,VWS V14.01,2013-03-27 23:12:00,
2013-03-27 18:17:00,50.5,32.6,30.07,SE,125,8.0,10.0,50,0.00,,SKC,0.00,VWS V14.01,2013-03-27 23:17:00,
2013-03-27 18:22:00,50.5,32.6,30.07,SE,129,9.0,11.0,50,0.00,,SKC,0.00,VWS V14.01,2013-03-27 23:22:00,
2013-03-27 18:27:00,50.1,32.2,30.07,SE,131,4.0,12.0,50,0.00,,SKC,0.00,VWS V14.01,2013-03-27 23:27:00,
2013-03-27 18:32:00,49.9,32.5,30.08,ESE,105,5.0,12.0,51,0.00,,SKC,0.00,VWS V14.01,2013-03-27 23:32:00,
2013-03-27 18:37:00,49.6,32.2,30.08,ESE,108,3.0,7.0,51,0.00,,SKC,0.00,VWS V14.01,2013-03-27 23:37:00,
2013-03-27 18:42:00,49.2,32.3,30.08,ESE,108,4.0,10.0,52,0.00,,SKC,0.00,VWS V14.01,2013-03-27 23:42:00,
2013-03-27 18:47:00,49.0,32.6,30.08,East,91,5.0,7.0,53,0.00,,SKC,0.00,VWS V14.01,2013-03-27 23:47:00,
2013-03-27 18:52:00,48.5,32.6,30.08,ESE,102,6.0,7.0,54,0.00,,SKC,0.00,VWS V14.01,2013-03-27 23:52:00,
2013-03-27 18:57:00,48.1,32.3,30.08,East,97,6.0,9.0,54,0.00,,SKC,0.00,VWS V14.01,2013-03-27 23:57:00,
2013-03-27 19:02:00,47.8,32.0,30.08,ESE,103,6.0,11.0,54,0.00,,SKC,0.00,VWS V14.01,2013-03-28 00:02:00,
2013-03-27 19:07:00,47.4,32.1,30.08,East,100,4.0,8.0,55,0.00,,SKC,0.00,VWS V14.01,2013-03-28 00:07:00,
2013-03-27 19:12:00,47.1,32.2,30.08,ESE,104,2.0,8.0,56,0.00,,SKC,0.00,VWS V14.01,2013-03-28 00:12:00,
2013-03-27 19:17:00,46.9,32.0,30.08,ESE,111,4.0,7.0,56,0.00,,SKC,0.00,VWS V14.01,2013-03-28 00:17:00,
2013-03-27 19:22:00,46.7,31.9,30.08,ESE,105,5.0,7.0,56,0.00,,SKC,0.00,VWS V14.01,2013-03-28 00:22:00,
2013-03-27 19:27:00,46.4,32.0,30.08,ESE,105,3.0,4.0,57,0.00,,SKC,0.00,VWS V14.01,2013-03-28 00:27:00,
2013-03-27 19:32:00,46.1,32.2,30.08,ESE,103,1.0,4.0,58,0.00,,SKC,0.00,VWS V14.01,2013-03-28 00:32:00,
2013-03-27 19:37:00,45.7,31.8,30.08,ESE,103,0.0,3.0,58,0.00,,SKC,0.00,VWS V14.01,2013-03-28 00:37:00,
2013-03-27 19:42:00,45.3,31.8,30.08,ESE,103,0.0,3.0,59,0.00,,SKC,0.00,VWS V14.01,2013-03-28 00:42:00,
2013-03-27 19:47:00,45.0,31.5,30.08,ESE,103,2.0,3.0,59,0.00,,SKC,0.00,VWS V14.01,2013-03-28 00:47:00,
2013-03-27 19:52:00,44.7,31.7,30.08,ESE,103,0.0,3.0,60,0.00,,SKC,0.00,VWS V14.01,2013-03-28 00:52:00,
2013-03-27 19:57:00,44.5,31.5,30.08,ESE,103,0.0,4.0,60,0.00,,SKC,0.00,VWS V14.01,2013-03-28 00:57:00,
2013-03-27 20:03:00,44.2,31.6,30.08,ESE,103,0.0,4.0,61,0.00,,SKC,0.00,VWS V14.01,2013-03-28 01:03:00,
2013-03-27 20:08:00,43.9,31.3,30.08,ESE,103,3.0,3.0,61,0.00,,SKC,0.00,VWS V14.01,2013-03-28 01:08:00,
2013-03-27 20:13:00,43.7,31.5,30.08,East,98,0.0,6.0,62,0.00,,SKC,0.00,VWS V14.01,2013-03-28 01:13:00,
2013-03-27 20:18:00,43.6,31.5,30.08,East,98,0.0,4.0,62,0.00,,SKC,0.00,VWS V14.01,2013-03-28 01:18:00,
2013-03-27 20:23:00,43.4,31.7,30.08,East,98,0.0,4.0,63,0.00,,SKC,0.00,VWS V14.01,2013-03-28 01:23:00,
2013-03-27 20:28:00,43.2,31.5,30.09,East,98,0.0,0.0,63,0.00,,SKC,0.00,VWS V14.01,2013-03-28 01:28:00,
2013-03-27 20:33:00,43.0,31.3,30.09,East,98,0.0,0.0,63,0.00,,SKC,0.00,VWS V14.01,2013-03-28 01:33:00,
2013-03-27 20:38:00,42.9,31.6,30.09,East,98,0.0,0.0,64,0.00,,SKC,0.00,VWS V14.01,2013-03-28 01:38:00,
2013-03-27 20:43:00,42.8,31.5,30.09,East,98,0.0,0.0,64,0.00,,SKC,0.00,VWS V14.01,2013-03-28 01:43:00,
2013-03-27 20:48:00,42.7,31.8,30.10,East,98,0.0,0.0,65,0.00,,SKC,0.00,VWS V14.01,2013-03-28 01:48:00,
2013-03-27 20:53:00,42.5,31.6,30.10,East,98,0.0,0.0,65,0.00,,SKC,0.00,VWS V14.01,2013-03-28 01:53:00,
2013-03-27 20:58:00,42.4,31.5,30.10,East,98,0.0,0.0,65,0.00,,SKC,0.00,VWS V14.01,2013-03-28 01:58:00,
2013-03-27 21:03:00,42.3,31.8,30.10,East,98,0.0,0.0,66,0.00,,SKC,0.00,VWS V14.01,2013-03-28 02:03:00,
2013-03-27 21:08:00,42.2,31.7,30.10,East,98,0.0,0.0,66,0.00,,SKC,0.00,VWS V14.01,2013-03-28 02:08:00,
2013-03-27 21:13:00,42.2,31.7,30.10,East,98,0.0,2.0,66,0.00,,SKC,0.00,VWS V14.01,2013-03-28 02:13:00,
2013-03-27 21:18:00,42.2,31.7,30.10,East,98,2.0,3.0,66,0.00,,SKC,0.00,VWS V14.01,2013-03-28 02:18:00,
2013-03-27 21:23:00,42.2,31.7,30.10,East,98,2.0,3.0,66,0.00,,SKC,0.00,VWS V14.01,2013-03-28 02:23:00,
2013-03-27 21:28:00,42.2,31.7,30.10,East,98,0.0,3.0,66,0.00,,SKC,0.00,VWS V14.01,2013-03-28 02:28:00,
2013-03-27 21:33:00,42.1,31.6,30.10,East,98,0.0,3.0,66,0.00,,SKC,0.00,VWS V14.01,2013-03-28 02:33:00,
2013-03-27 21:38:00,42.0,31.5,30.10,East,98,0.0,0.0,66,0.00,,SKC,0.00,VWS V14.01,2013-03-28 02:38:00,
2013-03-27 21:43:00,41.9,31.8,30.11,East,98,0.0,2.0,67,0.00,,SKC,0.00,VWS V14.01,2013-03-28 02:43:00,
2013-03-27 21:48:00,41.8,31.7,30.10,East,98,1.0,3.0,67,0.00,,SKC,0.00,VWS V14.01,2013-03-28 02:48:00,
2013-03-27 21:53:00,41.7,31.6,30.10,East,98,1.0,3.0,67,0.00,,SKC,0.00,VWS V14.01,2013-03-28 02:53:00,
2013-03-27 21:58:00,41.5,31.4,30.11,East,98,0.0,1.0,67,0.00,,SKC,0.00,VWS V14.01,2013-03-28 02:58:00,
2013-03-27 22:03:00,41.4,31.6,30.11,East,98,0.0,1.0,68,0.00,,SKC,0.00,VWS V14.01,2013-03-28 03:03:00,
2013-03-27 22:08:00,41.1,31.4,30.11,East,98,0.0,0.0,68,0.00,,SKC,0.00,VWS V14.01,2013-03-28 03:08:00,
2013-03-27 22:13:00,40.7,31.3,30.11,East,98,0.0,0.0,69,0.00,,SKC,0.00,VWS V14.01,2013-03-28 03:13:00,
2013-03-27 22:18:00,40.5,31.5,30.12,East,98,0.0,0.0,70,0.00,,SKC,0.00,VWS V14.01,2013-03-28 03:18:00,
2013-03-27 22:23:00,40.2,31.2,30.11,East,98,0.0,0.0,70,0.00,,SKC,0.00,VWS V14.01,2013-03-28 03:23:00,
2013-03-27 22:28:00,40.0,31.4,30.11,East,98,0.0,0.0,71,0.00,,SKC,0.00,VWS V14.01,2013-03-28 03:28:00,
2013-03-27 22:33:00,40.0,31.4,30.11,East,98,0.0,0.0,71,0.00,,SKC,0.00,VWS V14.01,2013-03-28 03:33:00,
2013-03-27 22:38:00,40.0,31.4,30.11,East,98,0.0,1.0,71,0.00,,SKC,0.00,VWS V14.01,2013-03-28 03:38:00,
2013-03-27 22:43:00,39.9,31.3,30.11,East,98,0.0,1.0,71,0.00,,SKC,0.00,VWS V14.01,2013-03-28 03:43:00,
2013-03-27 22:48:00,39.7,31.1,30.11,East,98,0.0,0.0,71,0.00,,SKC,0.00,VWS V14.01,2013-03-28 03:48:00,
2013-03-27 22:53:00,39.6,31.0,30.11,East,98,3.0,3.0,71,0.00,,SKC,0.00,VWS V14.01,2013-03-28 03:53:00,
2013-03-27 22:58:00,39.5,30.9,30.11,East,98,2.0,3.0,71,0.00,,SKC,0.00,VWS V14.01,2013-03-28 03:58:00,
2013-03-27 23:00:00,39.5,30.9,30.11,East,98,0.0,3.0,71,0.00,,SKC,0.00,VWS V14.01,2013-03-28 04:00:00,
2013-03-27 23:01:00,39.5,30.9,30.11,East,98,0.0,3.0,71,0.00,,SKC,0.00,VWS V14.01,2013-03-28 04:01:00,
2013-03-27 23:02:00,39.5,30.9,30.11,East,98,0.0,3.0,71,0.00,,SKC,0.00,VWS V14.01,2013-03-28 04:02:00,
2013-03-27 23:07:00,39.3,30.7,30.11,East,98,0.0,0.0,71,0.00,,SKC,0.00,VWS V14.01,2013-03-28 04:07:00,
2013-03-27 23:12:00,39.2,31.0,30.11,East,98,0.0,0.0,72,0.00,,SKC,0.00,VWS V14.01,2013-03-28 04:12:00,
2013-03-27 23:17:00,39.0,30.8,30.11,East,98,0.0,0.0,72,0.00,,SKC,0.00,VWS V14.01,2013-03-28 04:17:00,
2013-03-27 23:22:00,38.8,30.9,30.11,East,98,0.0,0.0,73,0.00,,SKC,0.00,VWS V14.01,2013-03-28 04:22:00,
2013-03-27 23:27:00,38.5,30.6,30.11,East,98,0.0,0.0,73,0.00,,SKC,0.00,VWS V14.01,2013-03-28 04:27:00,
2013-03-27 23:32:00,38.3,30.4,30.11,East,98,0.0,0.0,73,0.00,,SKC,0.00,VWS V14.01,2013-03-28 04:32:00,
2013-03-27 23:37:00,38.2,30.7,30.11,East,98,2.0,3.0,74,0.00,,SKC,0.00,VWS V14.01,2013-03-28 04:37:00,
2013-03-27 23:42:00,38.2,30.7,30.11,East,98,1.0,3.0,74,0.00,,SKC,0.00,VWS V14.01,2013-03-28 04:42:00,
2013-03-27 23:47:00,38.0,30.8,30.11,East,98,0.0,0.0,75,0.00,,SKC,0.00,VWS V14.01,2013-03-28 04:47:00,
2013-03-27 23:52:00,38.0,30.8,30.11,East,98,0.0,2.0,75,0.00,,SKC,0.00,VWS V14.01,2013-03-28 04:52:00,
2013-03-27 23:57:00,37.9,30.7,30.11,East,98,0.0,0.0,75,0.00,,SKC,0.00,VWS V14.01,2013-03-28 04:57:00,